COSMOS 1275 DEB

Satellite information

Favourite Embed

Satellite Type and Status

DEBRISIN ORBIT

Key statistics

Satellite COSMOS 1275 DEB at a glance.

Uptime

16213

Days in orbit

Revolutions

≈ 14.2

Per day

Orbit

LEO

Low Earth Orbit

Inclination

83.1

Latest

Satellite identification and parameters

Extended collection of information and parameters for COSMOS 1275 DEB.

Object identification

Identified? True

Debris? True

Object name: COSMOS 1275 DEB

International designator: 1981-053RK

Object number (NORAD): 42147

Object ID (CCSDS): 42147

Country: COMMONWEALTH OF INDEPENDENT STATES (CIS)

Current information (Y/N): Y

RCS size: SMALL

Orbital parameters

Period: 101.221 minutes

Inclination: 83.0617 deg

SMA: 7194.613 km

Apoapsis: 829.997 km

Periapsis: 802.96 km

RAAN: 81.8471 deg

Eccentricy: 0.00187898

Argument of periapsis: 72.6014 deg

Mean anomaly: 287.7222 deg

Mean motion: 14.22628808 rev/day

Mean motion (dot): 0.00003442 rev/day2

B* drag term: 0.0015295119 1/REarth

Two-line elements (TLE)

Creation date: Oct. 22, 2025, 5:40 p.m.

Reference frame: TEME

Reference center: EARTH

Epoch: Oct. 22, 2025, 3:01 a.m. UTC

TLE line 0: 0 COSMOS 1275 DEB

TLE line 1: 1 42147U 81053RK 25295.12631102 .00003442 00000-0 15295-2 0 9991

TLE line 2: 2 42147 83.0617 81.8471 0018790 72.6014 287.7222 14.22628808615158

Live tracking on map

Real-time ground track for satellite COSMOS 1275 DEB.

In-orbit conjunctions

A list of the most updated potential collisions computed for object COSMOS 1275 DEB.

Target Orbit TCA Probability of collision Miss distance Type
SAFIR 2 SSO 2025-10-22 18:41:42 0.0002285405 298.0 (m) PAYLOAD
FENGYUN 1C DEB SSO 2025-10-02 05:59:43 0.0001111456 197.0 (m) DEBRIS
CZ-4B R/B SSO 2025-08-04 02:36:32 0.0001801247 436.0 (m) ROCKET BODY
FENGYUN 1C DEB SSO 2025-01-08 12:20:39 0.000166131 108.0 (m) DEBRIS

Associated space launch

Navigation satellite providing location information for the Tsiklon-B navigation system

COSMOS 1275 DEB was lifted into orbit during the mission ‘Kosmos-3M | Parus 27’, on board a Kosmos-3M space rocket.

The launch took place on June 4, 1981, 3:41 p.m. from 132/2.

For more information about the launch, click the button.

Launch to space Kosmos-3M | Parus 27
Kosmos-3M | Parus 27

Agency: N/A

Status: Launch Successful

Launch date: June 4, 1981, 3:41 p.m. UTC

Rocket: Kosmos-3M

Launch pad: 132/2

Location: Plesetsk Cosmodrome, Russian Federation

...

Latest news about this satellite

There are no fresh news available about this satellite. Check back as we update our databases every day.


Newsletter sign-up

Weekly statistics, charts and insights to help you stay on top of the space industry.